TPC341 X39-KLAL

Flight info

Callsign TPC341
Flight time 0h 26m
Altitude 2500
Route VFR
Aircraft BE36/L-VGD/C

Departure

Time 2026-04-22 00:20
Airport Tampa North Aero Park Airport (X39)

Arrival

Time 2026-04-22 00:46
Airport Lakeland Linder International Airport (KLAL)
Time Latitude Longitude Altitude Speed Heading
2026-04-22 00:00 28.21679 -82.37187 82 ft 0 kts 51°
2026-04-22 00:01 28.21678 -82.37187 78 ft 0 kts 51°
2026-04-22 00:07 28.21678 -82.37188 77 ft 0 kts 51°
2026-04-22 00:14 28.21677 -82.37188 82 ft 0 kts 51°
2026-04-22 00:17 28.21678 -82.37188 82 ft 1 kts 51°
2026-04-22 00:17 28.21706 -82.37149 79 ft 7 kts 37°
2026-04-22 00:17 28.21752 -82.37132 83 ft 9 kts 46°
2026-04-22 00:17 28.21836 -82.37185 78 ft 21 kts 321°
2026-04-22 00:18 28.21971 -82.37313 80 ft 28 kts 322°
2026-04-22 00:18 28.22121 -82.37450 78 ft 26 kts 321°
2026-04-22 00:18 28.22252 -82.37571 75 ft 23 kts 321°
2026-04-22 00:18 28.22372 -82.37681 79 ft 21 kts 322°
2026-04-22 00:19 28.22465 -82.37770 78 ft 10 kts 317°
2026-04-22 00:19 28.22492 -82.37808 75 ft 6 kts 40°
2026-04-22 00:19 28.22432 -82.37734 83 ft 42 kts 141°
2026-04-22 00:19 28.22038 -82.37393 208 ft 84 kts 138°
2026-04-22 00:20 28.21609 -82.36968 505 ft 88 kts 111°
2026-04-22 00:20 28.21781 -82.36253 707 ft 113 kts 50°
2026-04-22 00:20 28.22438 -82.35654 914 ft 127 kts 57°
2026-04-22 00:20 28.22818 -82.34713 1124 ft 136 kts 70°
2026-04-22 00:21 28.23228 -82.33725 1351 ft 141 kts 68°
2026-04-22 00:21 28.23658 -82.32737 1574 ft 141 kts 66°
2026-04-22 00:21 28.24095 -82.31736 1802 ft 142 kts 66°
2026-04-22 00:21 28.24533 -82.30718 2031 ft 145 kts 67°
2026-04-22 00:22 28.24982 -82.29687 2255 ft 146 kts 68°
2026-04-22 00:22 28.25454 -82.28642 2396 ft 151 kts 66°
2026-04-22 00:22 28.25931 -82.27571 2509 ft 155 kts 66°
2026-04-22 00:22 28.26410 -82.26449 2513 ft 160 kts 68°
2026-04-22 00:23 28.26911 -82.25299 2517 ft 164 kts 67°
2026-04-22 00:23 28.27422 -82.24154 2521 ft 164 kts 66°
2026-04-22 00:23 28.27926 -82.22985 2515 ft 161 kts 67°
2026-04-22 00:23 28.28423 -82.21880 2520 ft 160 kts 66°
2026-04-22 00:24 28.28908 -82.20757 2522 ft 157 kts 70°
2026-04-22 00:24 28.28960 -82.19560 2509 ft 152 kts 101°
2026-04-22 00:24 28.28764 -82.18382 2518 ft 153 kts 98°
2026-04-22 00:24 28.28630 -82.17181 2518 ft 153 kts 96°
2026-04-22 00:25 28.28541 -82.15972 2505 ft 155 kts 94°
2026-04-22 00:25 28.28461 -82.14752 2508 ft 155 kts 93°
2026-04-22 00:25 28.28379 -82.13522 2506 ft 156 kts 93°
2026-04-22 00:25 28.28302 -82.12289 2503 ft 157 kts 94°
2026-04-22 00:26 28.28226 -82.11066 2450 ft 155 kts 93°
2026-04-22 00:26 28.28145 -82.09860 2323 ft 151 kts 94°
2026-04-22 00:26 28.28069 -82.08686 2194 ft 148 kts 94°
2026-04-22 00:26 28.27996 -82.07548 2071 ft 146 kts 94°
2026-04-22 00:27 28.27923 -82.06388 1950 ft 149 kts 94°
2026-04-22 00:27 28.27849 -82.05209 1817 ft 150 kts 94°
2026-04-22 00:27 28.27771 -82.04026 1684 ft 150 kts 92°
2026-04-22 00:27 28.27696 -82.02848 1559 ft 149 kts 92°
2026-04-22 00:28 28.27619 -82.01672 1439 ft 150 kts 92°
2026-04-22 00:28 28.27546 -82.00492 1312 ft 149 kts 94°
2026-04-22 00:28 28.27468 -81.99366 1200 ft 137 kts 95°
2026-04-22 00:28 28.27406 -81.98337 1189 ft 125 kts 94°
2026-04-22 00:29 28.27347 -81.97397 1188 ft 115 kts 93°
2026-04-22 00:29 28.27292 -81.96518 1187 ft 110 kts 91°
2026-04-22 00:29 28.27233 -81.95655 1189 ft 109 kts 91°
2026-04-22 00:29 28.27179 -81.94795 1192 ft 110 kts 91°
2026-04-22 00:30 28.27120 -81.93927 1193 ft 110 kts 92°
2026-04-22 00:30 28.27063 -81.93059 1191 ft 112 kts 91°
2026-04-22 00:30 28.26986 -81.92179 1190 ft 113 kts 101°
2026-04-22 00:30 28.26523 -81.91452 1191 ft 118 kts 131°
2026-04-22 00:31 28.25926 -81.90821 1189 ft 115 kts 128°
2026-04-22 00:31 28.25370 -81.90224 1185 ft 103 kts 128°
2026-04-22 00:31 28.24886 -81.89706 1184 ft 91 kts 125°
2026-04-22 00:31 28.24454 -81.89238 1185 ft 82 kts 124°
2026-04-22 00:32 28.24065 -81.88820 1185 ft 73 kts 122°
2026-04-22 00:32 28.23663 -81.88370 1195 ft 88 kts 124°
2026-04-22 00:32 28.23202 -81.87871 1213 ft 94 kts 125°
2026-04-22 00:32 28.22703 -81.87334 1210 ft 101 kts 126°
2026-04-22 00:33 28.22203 -81.86794 1203 ft 97 kts 127°
2026-04-22 00:33 28.21755 -81.86317 1197 ft 80 kts 126°
2026-04-22 00:33 28.21374 -81.85912 1191 ft 71 kts 127°
2026-04-22 00:33 28.21027 -81.85530 1190 ft 71 kts 126°
2026-04-22 00:34 28.20652 -81.85125 1192 ft 78 kts 127°
2026-04-22 00:34 28.20248 -81.84690 1202 ft 82 kts 127°
2026-04-22 00:34 28.19830 -81.84238 1210 ft 84 kts 129°
2026-04-22 00:34 28.19402 -81.83773 1206 ft 86 kts 130°
2026-04-22 00:35 28.18972 -81.83304 1206 ft 88 kts 129°
2026-04-22 00:35 28.18515 -81.82829 1205 ft 92 kts 131°
2026-04-22 00:35 28.18062 -81.82340 1199 ft 89 kts 129°
2026-04-22 00:35 28.17618 -81.81852 1203 ft 88 kts 130°
2026-04-22 00:36 28.17318 -81.81536 1206 ft 89 kts 129°
2026-04-22 00:36 28.16831 -81.81058 1204 ft 99 kts 141°
2026-04-22 00:36 28.16093 -81.81073 1205 ft 121 kts 195°
2026-04-22 00:36 28.15326 -81.81460 1204 ft 121 kts 196°
2026-04-22 00:37 28.14576 -81.81813 1205 ft 115 kts 196°
2026-04-22 00:37 28.13839 -81.82161 1200 ft 115 kts 194°
2026-04-22 00:37 28.13105 -81.82507 1197 ft 115 kts 193°
2026-04-22 00:37 28.12365 -81.82854 1213 ft 113 kts 194°
2026-04-22 00:38 28.11779 -81.83448 1207 ft 119 kts 240°
2026-04-22 00:38 28.11453 -81.84310 1206 ft 120 kts 242°
2026-04-22 00:38 28.11097 -81.85181 1201 ft 123 kts 242°
2026-04-22 00:38 28.10745 -81.86064 1207 ft 122 kts 240°
2026-04-22 00:39 28.10399 -81.86941 1200 ft 121 kts 243°
2026-04-22 00:39 28.10055 -81.87820 1201 ft 123 kts 243°
2026-04-22 00:39 28.09718 -81.88695 1206 ft 120 kts 243°
2026-04-22 00:39 28.09377 -81.89561 1215 ft 120 kts 239°
2026-04-22 00:40 28.09050 -81.90421 1216 ft 119 kts 247°
2026-04-22 00:40 28.08776 -81.91271 1192 ft 114 kts 245°
2026-04-22 00:40 28.08477 -81.92112 1196 ft 117 kts 248°
2026-04-22 00:40 28.08288 -81.93032 1200 ft 122 kts 256°
2026-04-22 00:41 28.08153 -81.93987 1124 ft 123 kts 258°
2026-04-22 00:41 28.08047 -81.94955 1077 ft 125 kts 264°
2026-04-22 00:41 28.07961 -81.95906 1144 ft 116 kts 265°
2026-04-22 00:41 28.07857 -81.96830 1131 ft 122 kts 261°
2026-04-22 00:42 28.07565 -81.97724 1151 ft 116 kts 233°
2026-04-22 00:42 28.07123 -81.98487 1157 ft 116 kts 226°
2026-04-22 00:42 28.06650 -81.99220 1206 ft 113 kts 228°
2026-04-22 00:42 28.06105 -81.99903 1159 ft 119 kts 218°
2026-04-22 00:43 28.05504 -82.00564 1129 ft 123 kts 218°
2026-04-22 00:43 28.04914 -82.01271 1088 ft 126 kts 224°
2026-04-22 00:43 28.04316 -82.02003 1045 ft 123 kts 212°
2026-04-22 00:43 28.03607 -82.02406 1081 ft 107 kts 181°
2026-04-22 00:44 28.02893 -82.02486 1079 ft 101 kts 169°
2026-04-22 00:44 28.02205 -82.02514 1117 ft 100 kts 173°
2026-04-22 00:44 28.01497 -82.02565 1144 ft 105 kts 172°
2026-04-22 00:44 28.00734 -82.02642 1054 ft 111 kts 176°
2026-04-22 00:45 28.00049 -82.03003 896 ft 117 kts 237°
2026-04-22 00:45 27.99803 -82.03837 687 ft 106 kts 230°
2026-04-22 00:45 27.99273 -82.03921 484 ft 70 kts 136°
2026-04-22 00:45 27.99051 -82.03445 356 ft 72 kts 96°
2026-04-22 00:46 27.99043 -82.02876 275 ft 74 kts 90°
2026-04-22 00:46 27.99039 -82.02318 173 ft 64 kts 91°
2026-04-22 00:46 27.99037 -82.01915 138 ft 39 kts 89°
2026-04-22 00:46 27.99038 -82.01613 137 ft 35 kts 90°
2026-04-22 00:47 27.99039 -82.01369 139 ft 29 kts 90°
2026-04-22 00:47 27.99041 -82.01139 139 ft 30 kts 89°
2026-04-22 00:47 27.99043 -82.00919 143 ft 25 kts 91°
2026-04-22 00:47 27.99042 -82.00811 144 ft 7 kts 95°
2026-04-22 00:48 27.99010 -82.00769 144 ft 8 kts 165°
2026-04-22 00:48 27.98913 -82.00761 142 ft 17 kts 176°
2026-04-22 00:48 27.98782 -82.00751 139 ft 20 kts 177°
2026-04-22 00:48 27.98658 -82.00765 139 ft 16 kts 249°
2026-04-22 00:49 27.98692 -82.00815 138 ft 0 kts 354°
2026-04-22 00:51 27.98691 -82.00815 138 ft 0 kts 353°